Location: LewisvilleTX
(33.0462°N, 96.9942°W)
Time: 06:54:05
(UTC+00:00)

N. Korean satellite - Pass Details

Date: 01 December 2021
Orbit: 447 x 491 km, 97.3° (Epoch: 22 January)

Event Time Altitude Azimuth Distance (km) Brightness Sun altitude
Rises 11:00:19 0° 27° (NNE) 2,455 10.4 -27.3°
Reaches altitude 10° 11:02:39 10° 42° (NE) 1,576 9.5 -26.8°
Maximum altitude 11:05:23 23° 97° (E) 1,004 8.9 -26.3°
Drops below altitude 10° 11:08:05 10° 151° (SSE) 1,564 9.6 -25.7°
Sets 11:10:24 0° 166° (SSE) 2,432 10.4 -25.2°
